"read_dt","SO2 (ppb)","flags","PMT voltage (V)","lamp voltage (V)","lamp intensity (Hz)","internal temp (C)","react chamber temp (C)","sample flow (l/min)","pres (mmHg)","SO2 bkg (ppb)","SO2 coefficient"
2013-12-14 00:00:00,1146E-4,5C000000,-0724,0974,10728,027.9,045.3,0.393,741.5,01.18,0.508
2013-12-14 00:01:00,1516E-4,5C000000,-0724,0973,10819,027.9,045.3,0.393,741.6,01.18,0.508
2013-12-14 00:02:00,1682E-4,5C000000,-0724,0974,10782,027.9,045.3,0.393,741.2,01.18,0.508
2013-12-14 00:03:00,1414E-4,5C000000,-0724,0973,10785,027.9,045.4,0.393,741.6,01.18,0.508
2013-12-14 00:04:00,1807E-4,5C000000,-0724,0973,10835,028.0,045.3,0.393,741.5,01.18,0.508
2013-12-14 00:05:00,1606E-4,5C000000,-0724,0974,10602,028.0,045.3,0.393,741.1,01.18,0.508
2013-12-14 00:06:00,1254E-4,5C000000,-0724,0973,10804,028.0,045.3,0.392,741.6,01.18,0.508
2013-12-14 00:07:00,1610E-4,5C000000,-0724,0974,10814,028.0,045.4,0.393,740.7,01.18,0.508
2013-12-14 00:08:00,1418E-4,5C000000,-0724,0975,10855,028.0,045.3,0.392,740.6,01.18,0.508
2013-12-14 00:09:00,1384E-4,5C000000,-0724,0974,10785,028.0,045.3,0.393,740.7,01.18,0.508
2013-12-14 00:10:00,1783E-4,5C000000,-0724,0974,10794,028.0,045.3,0.392,740.6,01.18,0.508
2013-12-14 00:11:00,1732E-4,5C000000,-0724,0975,10761,028.1,045.3,0.393,740.6,01.18,0.508
2013-12-14 00:12:00,1776E-4,5C000000,-0724,0974,10733,028.0,045.4,0.392,740.6,01.18,0.508
2013-12-14 00:13:00,1306E-4,5C000000,-0724,0974,10825,028.1,045.3,0.392,741.3,01.18,0.508
2013-12-14 00:14:00,1510E-4,5C000000,-0724,0974,10697,028.1,045.3,0.393,740.7,01.18,0.508
2013-12-14 00:15:00,2357E-4,5C000000,-0724,0975,10881,028.1,045.3,0.392,741.0,01.18,0.508
2013-12-14 00:16:00,2014E-5,5C000000,-0724,0974,10871,028.1,045.3,0.393,741.1,01.18,0.508
2013-12-14 00:17:00,1436E-4,5C000000,-0724,0973,10701,028.1,045.3,0.392,741.0,01.18,0.508
2013-12-14 00:18:00,1447E-4,5C000000,-0724,0974,10819,028.2,045.3,0.393,741.2,01.18,0.508
2013-12-14 00:19:00,1868E-4,5C000000,-0724,0974,10707,028.2,045.4,0.392,740.6,01.18,0.508
2013-12-14 00:20:00,1109E-4,5C000000,-0724,0974,10755,028.2,045.3,0.392,740.6,01.18,0.508
2013-12-14 00:21:00,1244E-4,5C000000,-0724,0975,10892,028.2,045.3,0.392,740.6,01.18,0.508
2013-12-14 00:22:00,1326E-4,5C000000,-0724,0975,10862,028.2,045.4,0.392,740.6,01.18,0.508
2013-12-14 00:23:00,2124E-4,5C000000,-0724,0974,10742,028.2,045.3,0.392,740.6,01.18,0.508
2013-12-14 00:24:00,1055E-4,5C000000,-0724,0975,10806,028.2,045.4,0.392,740.6,01.18,0.508
2013-12-14 00:25:00,1777E-4,5C000000,-0724,0974,10803,028.2,045.4,0.392,740.5,01.18,0.508
2013-12-14 00:26:00,9550E-5,5C000000,-0724,0974,10708,028.2,045.4,0.392,740.6,01.18,0.508
2013-12-14 00:27:00,1953E-4,5C000000,-0724,0975,10575,028.2,045.3,0.392,740.8,01.18,0.508
2013-12-14 00:28:00,1530E-4,5C000000,-0724,0975,10842,028.2,045.3,0.392,740.6,01.18,0.508
2013-12-14 00:29:00,2534E-4,5C000000,-0724,0975,10685,028.3,045.3,0.392,740.7,01.18,0.508
2013-12-14 00:30:00,1529E-4,5C000000,-0724,0975,10803,028.3,045.4,0.391,741.1,01.18,0.508
2013-12-14 00:31:00,1275E-4,5C000000,-0724,0975,10889,028.3,045.4,0.392,740.6,01.18,0.508
2013-12-14 00:32:00,2025E-4,5C000000,-0724,0974,10759,028.3,045.4,0.391,740.6,01.18,0.508
2013-12-14 00:33:00,1453E-4,5C000000,-0724,0974,10821,028.3,045.4,0.392,741.0,01.18,0.508
2013-12-14 00:34:00,2223E-4,5C000000,-0724,0975,10794,028.3,045.4,0.391,740.6,01.18,0.508
2013-12-14 00:35:00,1423E-4,5C000000,-0724,0975,10744,028.3,045.4,0.392,740.6,01.18,0.508
2013-12-14 00:36:00,1470E-4,5C000000,-0724,0975,10917,028.3,045.4,0.391,740.6,01.18,0.508
2013-12-14 00:37:00,2150E-4,5C000000,-0724,0975,10653,028.3,045.3,0.392,739.9,01.18,0.508
2013-12-14 00:38:00,1544E-4,5C000000,-0724,0974,10794,028.3,045.4,0.391,740.6,01.18,0.508
2013-12-14 00:39:00,2032E-4,5C000000,-0724,0975,10857,028.4,045.4,0.392,740.9,01.18,0.508
2013-12-14 00:40:00,7141E-5,5C000000,-0724,0975,10778,028.3,045.4,0.392,740.6,01.18,0.508
2013-12-14 00:41:00,2262E-4,5C000000,-0724,0974,10882,028.4,045.4,0.392,740.8,01.18,0.508
2013-12-14 00:42:00,1668E-4,5C000000,-0724,0975,10747,028.4,045.4,0.392,741.2,01.18,0.508
2013-12-14 00:43:00,1351E-4,5C000000,-0724,0975,10845,028.4,045.3,0.391,741.2,01.18,0.508
2013-12-14 00:44:00,1429E-4,5C000000,-0724,0975,10615,028.4,045.3,0.392,740.9,01.18,0.508
2013-12-14 00:45:00,1825E-4,5C000000,-0724,0975,10671,028.4,045.4,0.391,740.6,01.18,0.508
2013-12-14 00:46:00,1919E-4,5C000000,-0724,0975,10893,028.4,045.4,0.392,740.6,01.18,0.508
2013-12-14 00:47:00,2651E-4,5C000000,-0724,0976,10748,028.4,045.4,0.392,741.1,01.18,0.508
2013-12-14 00:48:00,1874E-4,5C000000,-0724,0974,10859,028.4,045.4,0.391,740.6,01.18,0.508
2013-12-14 00:49:00,6211E-5,5C000000,-0724,0975,10714,028.5,045.4,0.392,741.2,01.18,0.508
2013-12-14 00:50:00,1638E-4,5C000000,-0724,0975,10720,028.5,045.4,0.391,740.9,01.18,0.508
2013-12-14 00:51:00,1932E-4,5C000000,-0724,0975,10652,028.5,045.4,0.392,741.3,01.18,0.508
2013-12-14 00:52:00,2461E-4,5C000000,-0724,0975,10755,028.5,045.4,0.391,741.6,01.18,0.508
2013-12-14 00:53:00,1753E-4,5C000000,-0724,0975,10880,028.5,045.4,0.392,741.0,01.18,0.508
2013-12-14 00:54:00,1961E-4,5C000000,-0724,0975,10751,028.5,045.4,0.391,741.7,01.18,0.508
2013-12-14 00:55:00,7542E-5,5C000000,-0724,0975,10733,028.5,045.4,0.392,741.3,01.18,0.508
2013-12-14 00:56:00,1558E-4,5C000000,-0724,0975,10791,028.5,045.4,0.392,741.0,01.18,0.508
2013-12-14 00:57:00,2065E-4,5C000000,-0724,0976,10751,028.5,045.4,0.392,741.1,01.18,0.508
2013-12-14 00:58:00,1615E-4,5C000000,-0724,0976,10903,028.5,045.4,0.391,740.9,01.18,0.508
2013-12-14 00:59:00,3717E-5,5C000000,-0724,0975,10829,028.5,045.4,0.392,741.2,01.18,0.508
2013-12-14 01:00:00,1016E-4,5C000000,-0724,0975,10751,028.5,045.4,0.391,741.1,01.18,0.508
2013-12-14 01:01:00,1162E-4,5C000000,-0724,0976,10839,028.5,045.4,0.392,741.1,01.18,0.508
2013-12-14 01:02:00,1669E-4,5C000000,-0724,0975,10806,028.5,045.4,0.391,741.2,01.18,0.508
2013-12-14 01:03:00,1797E-4,5C000000,-0724,0975,10847,028.5,045.3,0.392,740.9,01.18,0.508
2013-12-14 01:04:00,1309E-4,5C000000,-0724,0976,10825,028.5,045.4,0.391,741.1,01.18,0.508
2013-12-14 01:05:00,5930E-5,5C000000,-0724,0975,10802,028.5,045.4,0.392,741.3,01.18,0.508
2013-12-14 01:06:00,2475E-4,5C000000,-0724,0975,10908,028.5,045.4,0.391,741.2,01.18,0.508
2013-12-14 01:07:00,1035E-4,5C000000,-0724,0975,10711,028.5,045.4,0.391,740.6,01.18,0.508
2013-12-14 01:08:00,1615E-4,5C000000,-0724,0974,10762,028.5,045.4,0.392,741.1,01.18,0.508
2013-12-14 01:09:00,1577E-4,5C000000,-0724,0976,10818,028.5,045.4,0.391,741.0,01.18,0.508
2013-12-14 01:10:00,9321E-5,5C000000,-0724,0976,10856,028.5,045.4,0.392,741.2,01.18,0.508
2013-12-14 01:11:00,1984E-4,5C000000,-0724,0976,10793,028.5,045.4,0.391,741.0,01.18,0.508
2013-12-14 01:12:00,1746E-4,5C000000,-0724,0975,10741,028.5,045.4,0.392,741.0,01.18,0.508
2013-12-14 01:13:00,2024E-4,5C000000,-0724,0975,10820,028.5,045.4,0.391,740.9,01.18,0.508
2013-12-14 01:14:00,1290E-4,5C000000,-0724,0975,10690,028.5,045.4,0.392,741.3,01.18,0.508
2013-12-14 01:15:00,1206E-4,5C000000,-0724,0974,10726,028.5,045.4,0.391,740.6,01.18,0.508
2013-12-14 01:16:00,1453E-4,5C000000,-0724,0975,10838,028.5,045.3,0.392,741.1,01.18,0.508
2013-12-14 01:17:00,2832E-4,5C000000,-0724,0976,10859,028.5,045.4,0.391,740.5,01.18,0.508
2013-12-14 01:18:00,4915E-5,5C000000,-0724,0975,10837,028.5,045.3,0.392,740.6,01.18,0.508
2013-12-14 01:19:00,1247E-4,5C000000,-0724,0976,10765,028.5,045.4,0.391,740.9,01.18,0.508
2013-12-14 01:20:00,1428E-4,5C000000,-0724,0975,10773,028.5,045.4,0.392,740.9,01.18,0.508
2013-12-14 01:21:00,1694E-4,5C000000,-0724,0975,10846,028.5,045.4,0.391,740.6,01.18,0.508
2013-12-14 01:22:00,1176E-4,5C000000,-0724,0975,10779,028.5,045.4,0.391,740.6,01.18,0.508
2013-12-14 01:23:00,2897E-4,5C000000,-0724,0975,10786,028.5,045.4,0.391,740.6,01.18,0.508
2013-12-14 01:24:00,2174E-4,5C000000,-0724,0974,10545,028.5,045.3,0.391,740.9,01.18,0.508
2013-12-14 01:25:00,2567E-4,5C000000,-0724,0975,10741,028.5,045.3,0.391,741.0,01.18,0.508
2013-12-14 01:26:00,2095E-4,5C000000,-0724,0975,10755,028.5,045.4,0.391,740.2,01.18,0.508
2013-12-14 01:27:00,2044E-4,5C000000,-0724,0975,10723,028.5,045.4,0.391,740.6,01.18,0.508
2013-12-14 01:28:00,1120E-4,5C000000,-0724,0975,10804,028.5,045.4,0.392,741.1,01.18,0.508
2013-12-14 01:29:00,1477E-4,5C000000,-0724,0975,10821,028.5,045.4,0.391,740.6,01.18,0.508
2013-12-14 01:30:00,1215E-4,5C000000,-0724,0975,10828,028.5,045.4,0.392,740.6,01.18,0.508
2013-12-14 01:31:00,1666E-4,5C000000,-0724,0975,10814,028.5,045.4,0.391,741.0,01.18,0.508
2013-12-14 01:32:00,1193E-4,5C000000,-0724,0976,10766,028.5,045.4,0.392,740.6,01.18,0.508
2013-12-14 01:33:00,1236E-4,5C000000,-0724,0975,10802,028.5,045.3,0.391,741.3,01.18,0.508
2013-12-14 01:34:00,1491E-4,5C000000,-0724,0975,10653,028.5,045.4,0.392,740.9,01.18,0.508
2013-12-14 01:35:00,1901E-4,5C000000,-0724,0975,10750,028.5,045.4,0.391,741.1,01.18,0.508
2013-12-14 01:36:00,1325E-4,5C000000,-0724,0975,10620,028.5,045.4,0.392,740.6,01.18,0.508
2013-12-14 01:37:00,1612E-4,5C000000,-0724,0976,10592,028.5,045.4,0.391,741.0,01.18,0.508
2013-12-14 01:38:00,1367E-4,5C000000,-0724,0975,10707,028.5,045.4,0.392,741.2,01.18,0.508
2013-12-14 01:39:00,2185E-4,5C000000,-0724,0975,10721,028.5,045.4,0.391,740.1,01.18,0.508
2013-12-14 01:40:00,1961E-4,5C000000,-0724,0975,10868,028.5,045.4,0.392,740.9,01.18,0.508
2013-12-14 01:41:00,3920E-5,5C000000,-0724,0974,10725,028.5,045.4,0.391,741.3,01.18,0.508
2013-12-14 01:42:00,1861E-4,5C000000,-0724,0975,10767,028.5,045.4,0.392,740.9,01.18,0.508
2013-12-14 01:43:00,2609E-5,5C000000,-0724,0975,10745,028.5,045.4,0.391,740.6,01.18,0.508
2013-12-14 01:44:00,2039E-4,5C000000,-0724,0976,10731,028.4,045.4,0.392,740.6,01.18,0.508
2013-12-14 01:45:00,1111E-4,5C000000,-0724,0975,10793,028.4,045.3,0.391,740.6,01.18,0.508
2013-12-14 01:46:00,1821E-4,5C000000,-0724,0976,10768,028.4,045.4,0.392,740.5,01.18,0.508
2013-12-14 01:47:00,1670E-4,5C000000,-0724,0975,10740,028.4,045.4,0.391,740.6,01.18,0.508
2013-12-14 01:48:00,1508E-4,5C000000,-0724,0974,10881,028.4,045.3,0.392,741.2,01.18,0.508
2013-12-14 01:49:00,1873E-4,5C000000,-0724,0975,10784,028.4,045.4,0.392,740.6,01.18,0.508
2013-12-14 01:50:00,2032E-4,5C000000,-0724,0974,10835,028.4,045.3,0.392,741.1,01.18,0.508
2013-12-14 01:51:00,1008E-4,5C000000,-0724,0975,10696,028.4,045.4,0.392,740.7,01.18,0.508
2013-12-14 01:52:00,9376E-5,5C000000,-0724,0976,10804,028.4,045.3,0.391,740.6,01.18,0.508
2013-12-14 01:53:00,1936E-4,5C000000,-0724,0976,10751,028.4,045.4,0.392,740.9,01.18,0.508
2013-12-14 01:54:00,1655E-4,5C000000,-0724,0974,10702,028.4,045.4,0.391,741.3,01.18,0.508
2013-12-14 01:55:00,1200E-4,5C000000,-0724,0975,10861,028.4,045.4,0.392,741.2,01.18,0.508
2013-12-14 01:56:00,1571E-4,5C000000,-0724,0975,10742,028.4,045.4,0.391,740.6,01.18,0.508
2013-12-14 01:57:00,6253E-5,5C000000,-0724,0975,10930,028.3,045.3,0.392,741.1,01.18,0.508
2013-12-14 01:58:00,1838E-4,5C000000,-0724,0975,10834,028.3,045.4,0.391,740.6,01.18,0.508
2013-12-14 01:59:00,2082E-4,5C000000,-0724,0975,10690,028.4,045.4,0.392,741.0,01.18,0.508
2013-12-14 02:00:00,2108E-4,5C000000,-0724,0975,10798,028.4,045.4,0.391,740.6,01.18,0.508
2013-12-14 02:01:00,8660E-5,5C000000,-0724,0975,10814,028.3,045.3,0.392,740.6,01.18,0.508
2013-12-14 02:02:00,1346E-4,5C000000,-0724,0975,10432,028.3,045.3,0.391,740.6,01.18,0.508
2013-12-14 02:03:00,8200E-5,5C000000,-0724,0974,10723,028.3,045.3,0.392,741.2,01.18,0.508
2013-12-14 02:04:00,1741E-4,5C000000,-0724,0974,10828,028.3,045.4,0.391,741.1,01.18,0.508
2013-12-14 02:05:00,8399E-5,5C000000,-0724,0975,10874,028.3,045.4,0.392,741.0,01.18,0.508
2013-12-14 02:06:00,1085E-4,5C000000,-0724,0974,10866,028.3,045.4,0.392,741.2,01.18,0.508
2013-12-14 02:07:00,1341E-4,5C000000,-0724,0975,10809,028.3,045.3,0.392,741.1,01.18,0.508
2013-12-14 02:08:00,1654E-4,5C000000,-0724,0975,10752,028.3,045.3,0.392,740.6,01.18,0.508
2013-12-14 02:09:00,1171E-4,5C000000,-0724,0976,10755,028.3,045.3,0.392,740.7,01.18,0.508
2013-12-14 02:10:00,6703E-5,5C000000,-0724,0975,10883,028.3,045.3,0.392,741.0,01.18,0.508
2013-12-14 02:11:00,1500E-4,5C000000,-0724,0974,10773,028.3,045.3,0.391,740.6,01.18,0.508
2013-12-14 02:12:00,1868E-4,5C000000,-0724,0974,10917,028.3,045.4,0.392,741.2,01.18,0.508
2013-12-14 02:13:00,1418E-4,5C000000,-0724,0975,10784,028.3,045.3,0.392,741.0,01.18,0.508
2013-12-14 02:14:00,1435E-4,5C000000,-0724,0974,10857,028.3,045.4,0.392,740.6,01.18,0.508
2013-12-14 02:15:00,1528E-4,5C000000,-0724,0975,10879,028.3,045.4,0.392,740.9,01.18,0.508
2013-12-14 02:16:00,6076E-5,5C000000,-0724,0974,10620,028.2,045.4,0.392,741.0,01.18,0.508
2013-12-14 02:17:00,1161E-4,5C000000,-0724,0975,10770,028.2,045.4,0.391,741.3,01.18,0.508
2013-12-14 02:18:00,1725E-4,5C000000,-0724,0974,10739,028.2,045.3,0.392,740.3,01.18,0.508
2013-12-14 02:19:00,1490E-4,5C000000,-0724,0975,10722,028.2,045.3,0.392,740.6,01.18,0.508
2013-12-14 02:20:00,1766E-4,5C000000,-0724,0974,10912,028.2,045.3,0.392,740.9,01.18,0.508
2013-12-14 02:21:00,1273E-4,5C000000,-0724,0974,10868,028.2,045.3,0.391,740.6,01.18,0.508
2013-12-14 02:22:00,1017E-4,5C000000,-0724,0975,10797,028.2,045.4,0.392,740.9,01.18,0.508
2013-12-14 02:23:00,1476E-4,5C000000,-0724,0975,10802,028.2,045.3,0.392,740.6,01.18,0.508
2013-12-14 02:24:00,1534E-4,5C000000,-0724,0974,10853,028.2,045.3,0.392,740.6,01.18,0.508
2013-12-14 02:25:00,8706E-5,5C000000,-0724,0974,10805,028.1,045.3,0.392,741.0,01.18,0.508
2013-12-14 02:26:00,1374E-4,5C000000,-0724,0975,10850,028.2,045.4,0.392,741.2,01.18,0.508
2013-12-14 02:27:00,1618E-4,5C000000,-0724,0975,10878,028.2,045.4,0.392,740.6,01.18,0.508
2013-12-14 02:28:00,2410E-4,5C000000,-0724,0974,10693,028.1,045.4,0.392,740.9,01.18,0.508
2013-12-14 02:29:00,1567E-4,5C000000,-0724,0974,10741,028.1,045.3,0.392,740.6,01.18,0.508
2013-12-14 02:30:00,2143E-4,5C000000,-0724,0974,10855,028.1,045.3,0.392,740.6,01.18,0.508
2013-12-14 02:31:00,1154E-4,5C000000,-0724,0976,10814,028.1,045.3,0.392,740.7,01.18,0.508
2013-12-14 02:32:00,1833E-4,5C000000,-0724,0975,10457,028.1,045.3,0.392,741.0,01.18,0.508
2013-12-14 02:33:00,2630E-4,5C000000,-0724,0974,10766,028.1,045.3,0.392,740.9,01.18,0.508
2013-12-14 02:34:00,2084E-4,5C000000,-0724,0975,10887,028.1,045.3,0.392,740.6,01.18,0.508
2013-12-14 02:35:00,5527E-5,5C000000,-0724,0975,10890,028.1,045.4,0.392,740.9,01.18,0.508
2013-12-14 02:36:00,1965E-4,5C000000,-0724,0975,10748,028.1,045.4,0.393,741.2,01.18,0.508
2013-12-14 02:37:00,1738E-4,5C000000,-0724,0975,10825,028.1,045.3,0.392,740.6,01.18,0.508
2013-12-14 02:38:00,1197E-4,5C000000,-0724,0974,10801,028.1,045.3,0.393,741.4,01.18,0.508
2013-12-14 02:39:00,1430E-4,5C000000,-0724,0974,10726,028.1,045.4,0.392,740.9,01.18,0.508
2013-12-14 02:40:00,1109E-4,5C000000,-0724,0974,10711,028.1,045.3,0.392,740.6,01.18,0.508
2013-12-14 02:41:00,1838E-4,5C000000,-0724,0974,10784,028.0,045.3,0.392,740.6,01.18,0.508
2013-12-14 02:42:00,1472E-4,5C000000,-0724,0974,10687,028.1,045.3,0.392,741.0,01.18,0.508
2013-12-14 02:43:00,1276E-4,5C000000,-0724,0974,10888,028.0,045.3,0.393,741.4,01.18,0.508
2013-12-14 02:44:00,1625E-4,5C000000,-0724,0974,10834,028.1,045.3,0.392,740.9,01.18,0.508
2013-12-14 02:45:00,1533E-4,5C000000,-0724,0975,10819,028.0,045.3,0.393,741.4,01.18,0.508
2013-12-14 02:46:00,1116E-4,5C000000,-0724,0974,10645,028.1,045.4,0.392,740.8,01.18,0.508
2013-12-14 02:47:00,1233E-4,5C000000,-0724,0975,10825,028.1,045.3,0.393,741.0,01.18,0.508
2013-12-14 02:48:00,9356E-5,5C000000,-0724,0974,10708,028.0,045.3,0.392,741.1,01.18,0.508
2013-12-14 02:49:00,7104E-5,5C000000,-0724,0974,10838,028.0,045.4,0.393,741.4,01.18,0.508
2013-12-14 02:50:00,7519E-5,5C000000,-0724,0975,10680,028.0,045.4,0.392,740.6,01.18,0.508
2013-12-14 02:51:00,1169E-4,5C000000,-0724,0974,10761,028.0,045.4,0.393,740.6,01.18,0.508
2013-12-14 02:52:00,8627E-5,5C000000,-0724,0974,10719,028.0,045.4,0.392,740.9,01.18,0.508
2013-12-14 02:53:00,1496E-4,5C000000,-0724,0974,10768,028.0,045.3,0.393,741.0,01.18,0.508
2013-12-14 02:54:00,8417E-5,5C000000,-0724,0974,10848,028.0,045.4,0.392,740.6,01.18,0.508
2013-12-14 02:55:00,1574E-4,5C000000,-0724,0974,10865,028.1,045.4,0.393,741.3,01.18,0.508
2013-12-14 02:56:00,1466E-4,5C000000,-0724,0974,10840,028.0,045.3,0.392,741.1,01.18,0.508
2013-12-14 02:57:00,2057E-4,5C000000,-0724,0974,10725,028.0,045.3,0.393,740.9,01.18,0.508
2013-12-14 02:58:00,1418E-4,5C000000,-0724,0974,10798,028.0,045.3,0.392,741.5,01.18,0.508
2013-12-14 02:59:00,1292E-4,5C000000,-0724,0974,10802,028.0,045.3,0.393,741.9,01.18,0.508
2013-12-14 03:00:00,1746E-4,5C000000,-0724,0973,10679,028.0,045.3,0.392,741.4,01.18,0.508
2013-12-14 03:01:00,1069E-4,5C000000,-0724,0974,10790,028.0,045.4,0.393,741.4,01.18,0.508
2013-12-14 03:02:00,4967E-5,5C000000,-0724,0974,10768,028.0,045.4,0.393,741.6,01.18,0.508
2013-12-14 03:03:00,1237E-4,5C000000,-0724,0973,10846,028.0,045.3,0.393,741.8,01.18,0.508
2013-12-14 03:04:00,1168E-4,5C000000,-0724,0974,10800,028.0,045.3,0.393,741.7,01.18,0.508
2013-12-14 03:05:00,1538E-4,5C000000,-0724,0974,10716,028.0,045.3,0.393,741.5,01.18,0.508
2013-12-14 03:06:00,6482E-5,5C000000,-0724,0974,10829,028.0,045.3,0.393,741.7,01.18,0.508
2013-12-14 03:07:00,1145E-4,5C000000,-0724,0975,10764,028.0,045.3,0.393,741.8,01.18,0.508
2013-12-14 03:08:00,1562E-4,5C000000,-0724,0974,10685,028.0,045.3,0.393,741.6,01.18,0.508
2013-12-14 03:09:00,4958E-5,5C000000,-0724,0974,10729,028.0,045.4,0.393,741.4,01.18,0.508
2013-12-14 03:10:00,6631E-5,5C000000,-0724,0974,10818,028.0,045.3,0.393,741.3,01.18,0.508
2013-12-14 03:11:00,8430E-5,5C000000,-0724,0974,10822,028.0,045.3,0.393,741.8,01.18,0.508
2013-12-14 03:12:00,4888E-5,5C000000,-0724,0974,10821,028.0,045.3,0.393,741.7,01.18,0.508
2013-12-14 03:13:00,1118E-4,5C000000,-0724,0974,10763,028.0,045.3,0.392,741.5,01.18,0.508
2013-12-14 03:14:00,1093E-4,5C000000,-0724,0974,10788,028.0,045.3,0.393,741.0,01.18,0.508
2013-12-14 03:15:00,9243E-5,5C000000,-0724,0974,10761,028.0,045.4,0.392,741.2,01.18,0.508
2013-12-14 03:16:00,1660E-4,5C000000,-0724,0974,10801,028.0,045.4,0.393,742.0,01.18,0.508
2013-12-14 03:17:00,1382E-4,5C000000,-0724,0974,10658,028.0,045.4,0.393,741.4,01.18,0.508
2013-12-14 03:18:00,1686E-4,5C000000,-0724,0974,10785,028.0,045.3,0.393,741.5,01.18,0.508
2013-12-14 03:19:00,1509E-4,5C000000,-0724,0974,10851,028.0,045.4,0.393,741.7,01.18,0.508
2013-12-14 03:20:00,7650E-5,5C000000,-0724,0974,10818,028.0,045.3,0.393,741.5,01.18,0.508
2013-12-14 03:21:00,6891E-5,5C000000,-0724,0974,10698,028.0,045.3,0.393,741.5,01.18,0.508
2013-12-14 03:22:00,1027E-4,5C000000,-0724,0975,10806,028.0,045.3,0.393,741.8,01.18,0.508
2013-12-14 03:23:00,8707E-5,5C000000,-0724,0974,10726,028.1,045.3,0.393,741.6,01.18,0.508
2013-12-14 03:24:00,8532E-5,5C000000,-0724,0974,10777,028.1,045.3,0.393,741.6,01.18,0.508
2013-12-14 03:25:00,1453E-4,5C000000,-0724,0975,10605,028.0,045.3,0.392,741.4,01.18,0.508
2013-12-14 03:26:00,1603E-4,5C000000,-0724,0975,10734,028.1,045.3,0.393,741.9,01.18,0.508
2013-12-14 03:27:00,1092E-4,5C000000,-0724,0974,10758,028.0,045.3,0.392,741.0,01.18,0.508
2013-12-14 03:28:00,1170E-4,5C000000,-0724,0974,10788,028.1,045.3,0.393,741.6,01.18,0.508
2013-12-14 03:29:00,1598E-4,5C000000,-0724,0974,10857,028.1,045.4,0.392,741.5,01.18,0.508
2013-12-14 03:30:00,1505E-4,5C000000,-0724,0975,10572,028.1,045.4,0.393,741.7,01.18,0.508
2013-12-14 03:31:00,1712E-4,5C000000,-0724,0974,10555,028.1,045.3,0.393,741.4,01.18,0.508
2013-12-14 03:32:00,6005E-5,5C000000,-0724,0974,10796,028.1,045.4,0.393,741.7,01.18,0.508
2013-12-14 03:33:00,1493E-4,5C000000,-0724,0974,10807,028.1,045.4,0.392,741.2,01.18,0.508
2013-12-14 03:34:00,1202E-4,5C000000,-0724,0974,10830,028.1,045.4,0.393,741.3,01.18,0.508
2013-12-14 03:35:00,5948E-5,5C000000,-0724,0974,10860,028.1,045.4,0.393,740.9,01.18,0.508
2013-12-14 03:36:00,1440E-4,5C000000,-0724,0974,10748,028.1,045.4,0.392,741.1,01.18,0.508
2013-12-14 03:37:00,1424E-4,5C000000,-0724,0975,10821,028.1,045.3,0.392,740.9,01.18,0.508
2013-12-14 03:38:00,1403E-4,5C000000,-0724,0974,10723,028.1,045.3,0.392,741.0,01.18,0.508
2013-12-14 03:39:00,1364E-4,5C000000,-0724,0974,10807,028.1,045.3,0.393,741.3,01.18,0.508
2013-12-14 03:40:00,8469E-5,5C000000,-0724,0974,10802,028.1,045.3,0.392,740.6,01.18,0.508
2013-12-14 03:41:00,8002E-5,5C000000,-0724,0974,10755,028.1,045.4,0.393,740.9,01.18,0.508
2013-12-14 03:42:00,9028E-5,5C000000,-0724,0974,10854,028.1,045.4,0.392,740.7,01.18,0.508
2013-12-14 03:43:00,8663E-5,5C000000,-0724,0975,10794,028.1,045.3,0.392,740.6,01.18,0.508
2013-12-14 03:44:00,1405E-4,5C000000,-0724,0974,10712,028.1,045.3,0.393,741.1,01.18,0.508
2013-12-14 03:45:00,1284E-4,5C000000,-0724,0974,10847,028.1,045.3,0.392,740.6,01.18,0.508
2013-12-14 03:46:00,1383E-4,5C000000,-0724,0975,10723,028.1,045.3,0.393,740.8,01.18,0.508
2013-12-14 03:47:00,1210E-4,5C000000,-0724,0974,10845,028.1,045.3,0.392,740.6,01.18,0.508
2013-12-14 03:48:00,1018E-4,5C000000,-0724,0975,10768,028.1,045.3,0.393,741.0,01.18,0.508
2013-12-14 03:49:00,9622E-5,5C000000,-0724,0975,10888,028.1,045.3,0.392,740.6,01.18,0.508
2013-12-14 03:50:00,6006E-5,5C000000,-0724,0974,10761,028.1,045.3,0.392,740.6,01.18,0.508
2013-12-14 03:51:00,2061E-5,5C000000,-0724,0974,10718,028.1,045.4,0.393,740.7,01.18,0.508
2013-12-14 03:52:00,8403E-5,5C000000,-0724,0975,10883,028.0,045.4,0.392,740.6,01.18,0.508
2013-12-14 03:53:00,1264E-4,5C000000,-0724,0974,10815,028.0,045.4,0.392,740.0,01.18,0.508
2013-12-14 03:54:00,1312E-4,5C000000,-0724,0975,10640,028.0,045.3,0.392,740.6,01.18,0.508
2013-12-14 03:55:00,1850E-4,5C000000,-0724,0975,10760,028.0,045.3,0.393,740.6,01.18,0.508
2013-12-14 03:56:00,2024E-4,5C000000,-0724,0974,10699,028.0,045.4,0.392,740.6,01.18,0.508
2013-12-14 03:57:00,1410E-4,5C000000,-0724,0974,10741,028.0,045.3,0.393,740.3,01.18,0.508
2013-12-14 03:58:00,9264E-5,5C000000,-0724,0973,10819,028.0,045.3,0.393,740.6,01.18,0.508
2013-12-14 03:59:00,1086E-4,5C000000,-0724,0974,10775,028.0,045.3,0.392,740.2,01.18,0.508
2013-12-14 04:00:00,3596E-5,5C000000,-0724,0974,10780,028.0,045.3,0.393,740.6,01.18,0.508
2013-12-14 04:01:00,4679E-5,5C000000,-0724,0975,10883,028.0,045.3,0.392,740.8,01.18,0.508
2013-12-14 04:02:00,4440E-5,5C000000,-0724,0974,10782,028.0,045.3,0.393,740.6,01.18,0.508
2013-12-14 04:03:00,1783E-5,5C000000,-0724,0974,10590,028.0,045.3,0.392,740.2,01.18,0.508
2013-12-14 04:04:00,1225E-4,5C000000,-0724,0975,10696,028.0,045.3,0.393,740.6,01.18,0.508
2013-12-14 04:05:00,9959E-5,5C000000,-0724,0974,10842,028.0,045.3,0.392,740.6,01.18,0.508
2013-12-14 04:06:00,1169E-4,5C000000,-0724,0974,10778,027.9,045.3,0.392,740.1,01.18,0.508
2013-12-14 04:07:00,7413E-6,5C000000,-0724,0973,10812,027.9,045.3,0.393,740.5,01.18,0.508
2013-12-14 04:08:00,1602E-4,5C000000,-0724,0974,10803,027.9,045.3,0.392,740.6,01.18,0.508
2013-12-14 04:09:00,5453E-5,5C000000,-0724,0974,10800,027.9,045.3,0.393,740.6,01.18,0.508
2013-12-14 04:10:00,1107E-4,5C000000,-0724,0974,10740,027.9,045.3,0.392,740.6,01.18,0.508
2013-12-14 04:11:00,1251E-4,5C000000,-0724,0975,10859,027.9,045.3,0.393,740.9,01.18,0.508
2013-12-14 04:12:00,2030E-4,5C000000,-0724,0973,10531,027.9,045.3,0.392,740.5,01.18,0.508
2013-12-14 04:13:00,1317E-4,5C000000,-0724,0974,10772,027.9,045.3,0.392,740.0,01.18,0.508
2013-12-14 04:14:00,1171E-4,5C000000,-0724,0974,10801,027.9,045.3,0.393,740.4,01.18,0.508
2013-12-14 04:15:00,7084E-5,5C000000,-0724,0974,10885,027.9,045.3,0.392,739.7,01.18,0.508
2013-12-14 04:16:00,1296E-4,5C000000,-0724,0974,10790,027.9,045.3,0.393,739.8,01.18,0.508
2013-12-14 04:17:00,1305E-4,5C000000,-0724,0974,10805,027.9,045.3,0.392,739.3,01.18,0.508
2013-12-14 04:18:00,7076E-5,5C000000,-0724,0974,10745,027.9,045.3,0.392,739.1,01.18,0.508
2013-12-14 04:19:00,8179E-5,5C000000,-0724,0973,10757,027.9,045.3,0.393,739.4,01.18,0.508
2013-12-14 04:20:00,1664E-4,5C000000,-0724,0973,10676,027.9,045.4,0.392,739.8,01.18,0.508